Terminal Aerodrome Forecast
Issued by NWS

Home | Current Version | Previous Version | Text Only | Print | Product List | Glossary On
Versions: 1 2 3 4 5 6 7 8 9 10 11 12 13 14 15 16 17 18 19 20 21 22 23 24 25 26 27 28 29 30 31 32 33 34 35 36 37 38 39 40 41 42 43 44 45 46 47 48 49 50
000
FTUS41 KCTP 191350 AAB
TAFJST
TAF AMD
KJST 191350Z 1914/2012 27010KT 2SM BR OVC002
     FM191500 27008KT 3SM BR OVC005
     FM191700 27007KT 6SM BR OVC009
     FM191900 27007KT P6SM SCT015
     FM200100 14006KT P6SM BKN250
     FM201100 16007KT P6SM OVC090=

USA.gov is the U.S. government's official web portal to all federal, state and local government web resources and services.